TimeEDT,TemperatureF,Dew PointF,Humidity,Sea Level PressureIn,VisibilityMPH,Wind Direction,Wind SpeedMPH,Gust SpeedMPH,PrecipitationIn,Events,Conditions,WindDirDegrees,DateUTC
12:15 AM,75.6,66.9,74,29.86,10.0,Calm,Calm,-,N/A,Thunderstorm,Thunderstorm,0,2013-08-31 04:15:00
12:35 AM,74.7,68.2,80,29.87,10.0,WSW,5.8,-,N/A,Thunderstorm,Thunderstorm,250,2013-08-31 04:35:00
12:55 AM,74.8,68.5,81,29.86,10.0,Calm,Calm,-,N/A,Rain,Light Rain,0,2013-08-31 04:55:00
1:15 AM,73.8,68.9,85,29.84,7.0,SSE,5.8,-,0.01,Rain,Light Rain,160,2013-08-31 05:15:00
1:35 AM,73.8,69.1,85,29.85,10.0,SW,10.4,18.4,0.02,Rain,Light Rain,220,2013-08-31 05:35:00
1:55 AM,74.3,68.2,81,29.88,10.0,NW,10.4,-,0.02,,Clear,310,2013-08-31 05:55:00
2:15 AM,73.6,67.8,82,29.86,10.0,Calm,Calm,-,N/A,,Clear,0,2013-08-31 06:15:00
2:35 AM,72.5,68.0,86,29.83,10.0,North,3.5,-,N/A,,Clear,10,2013-08-31 06:35:00
2:55 AM,72.0,67.6,86,29.85,10.0,WNW,3.5,-,N/A,,Clear,290,2013-08-31 06:55:00
3:15 AM,71.6,67.1,86,29.85,10.0,NNW,3.5,-,N/A,,Clear,330,2013-08-31 07:15:00
3:35 AM,71.6,66.2,83,29.85,10.0,Calm,Calm,-,N/A,,Clear,0,2013-08-31 07:35:00
3:55 AM,70.2,66.0,87,29.86,10.0,Calm,Calm,-,N/A,,Clear,0,2013-08-31 07:55:00
4:15 AM,69.8,66.0,88,29.87,10.0,Calm,Calm,-,N/A,,Clear,0,2013-08-31 08:15:00
4:35 AM,69.4,65.8,88,29.87,7.0,Calm,Calm,-,N/A,,Clear,0,2013-08-31 08:35:00
4:55 AM,70.0,66.6,89,29.88,7.0,Calm,Calm,-,N/A,,Clear,0,2013-08-31 08:55:00
5:15 AM,69.8,66.2,88,29.88,7.0,Calm,Calm,-,N/A,,Clear,0,2013-08-31 09:15:00
5:35 AM,69.8,66.4,89,29.87,7.0,Calm,Calm,-,N/A,,Clear,0,2013-08-31 09:35:00
5:55 AM,69.8,66.2,88,29.87,7.0,SSE,3.5,-,N/A,,Clear,160,2013-08-31 09:55:00
6:15 AM,69.6,66.2,89,29.87,7.0,Calm,Calm,-,N/A,,Clear,0,2013-08-31 10:15:00
6:35 AM,68.9,65.5,89,29.88,7.0,Calm,Calm,-,N/A,,Clear,0,2013-08-31 10:35:00
6:55 AM,68.0,64.6,89,29.88,5.0,Calm,Calm,-,N/A,,Clear,0,2013-08-31 10:55:00
7:15 AM,67.1,64.0,90,29.87,3.0,Calm,Calm,-,N/A,,Clear,0,2013-08-31 11:15:00
7:35 AM,66.9,63.9,90,29.86,3.0,Calm,Calm,-,N/A,,Clear,0,2013-08-31 11:35:00
7:55 AM,68.0,64.8,89,29.87,3.0,Calm,Calm,-,N/A,,Clear,0,2013-08-31 11:55:00
8:15 AM,69.6,66.4,89,29.86,5.0,Calm,Calm,-,N/A,,Clear,0,2013-08-31 12:15:00
8:35 AM,70.9,67.6,89,29.86,10.0,Calm,Calm,-,N/A,,Clear,0,2013-08-31 12:35:00
8:55 AM,72.9,68.4,86,29.87,10.0,Calm,Calm,-,N/A,,Clear,0,2013-08-31 12:55:00
9:15 AM,75.2,67.8,78,29.88,10.0,WSW,3.5,-,N/A,,Clear,240,2013-08-31 13:15:00
9:35 AM,76.8,67.5,73,29.88,10.0,Calm,Calm,-,N/A,,Clear,0,2013-08-31 13:35:00
9:55 AM,78.1,64.9,64,29.89,10.0,Calm,Calm,-,N/A,,Clear,0,2013-08-31 13:55:00
10:15 AM,79.7,65.8,62,29.88,10.0,Calm,Calm,-,N/A,,Clear,0,2013-08-31 14:15:00
10:35 AM,81.0,65.8,60,29.88,10.0,South,3.5,-,N/A,,Clear,190,2013-08-31 14:35:00
10:55 AM,82.2,66.0,58,29.88,10.0,Calm,Calm,-,N/A,,Scattered Clouds,0,2013-08-31 14:55:00
11:15 AM,83.5,66.4,56,29.87,10.0,SSE,3.5,-,N/A,,Scattered Clouds,160,2013-08-31 15:15:00
11:35 AM,84.4,66.9,56,29.87,10.0,South,5.8,-,N/A,,Scattered Clouds,170,2013-08-31 15:35:00
11:55 AM,84.6,67.3,56,29.86,10.0,South,5.8,-,N/A,,Scattered Clouds,180,2013-08-31 15:55:00
12:15 PM,84.4,67.1,56,29.86,10.0,SSW,4.6,-,N/A,,Mostly Cloudy,200,2013-08-31 16:15:00
12:35 PM,86.9,68.0,53,29.86,10.0,SW,6.9,-,N/A,Thunderstorm,Scattered Clouds,220,2013-08-31 16:35:00
12:55 PM,88.2,65.8,47,29.85,10.0,SW,4.6,-,N/A,Thunderstorm,Clear,220,2013-08-31 16:55:00
1:15 PM,88.0,65.3,47,29.84,10.0,South,4.6,-,N/A,Thunderstorm,Thunderstorm,180,2013-08-31 17:15:00
1:35 PM,88.2,66.6,49,29.85,10.0,Calm,Calm,-,N/A,,Mostly Cloudy,0,2013-08-31 17:35:00
1:55 PM,89.4,68.5,50,29.85,10.0,WNW,3.5,-,N/A,,Mostly Cloudy,300,2013-08-31 17:55:00
2:15 PM,88.2,68.7,52,29.85,10.0,Calm,Calm,-,N/A,,Scattered Clouds,0,2013-08-31 18:15:00
2:35 PM,88.7,70.0,54,29.84,10.0,South,3.5,-,N/A,,Clear,190,2013-08-31 18:35:00
2:55 PM,89.1,70.5,54,29.84,10.0,NNW,4.6,-,N/A,,Mostly Cloudy,340,2013-08-31 18:55:00
3:15 PM,88.3,69.4,53,29.83,10.0,Calm,Calm,-,N/A,,Scattered Clouds,0,2013-08-31 19:15:00
3:35 PM,87.4,68.2,53,29.83,10.0,ENE,8.1,-,N/A,,Clear,70,2013-08-31 19:35:00
3:55 PM,84.7,66.4,54,29.83,10.0,NNE,11.5,-,N/A,,Scattered Clouds,30,2013-08-31 19:55:00
4:15 PM,81.7,66.6,60,29.80,10.0,East,5.8,20.7,N/A,Thunderstorm,Thunderstorm,80,2013-08-31 20:15:00
4:35 PM,79.3,66.4,64,29.81,10.0,NE,5.8,-,N/A,Thunderstorm,Scattered Clouds,40,2013-08-31 20:35:00
4:55 PM,81.9,68.4,63,29.82,10.0,NE,6.9,-,N/A,Thunderstorm,Thunderstorm,50,2013-08-31 20:55:00
5:15 PM,81.5,69.1,66,29.80,10.0,East,13.8,20.7,N/A,,Scattered Clouds,80,2013-08-31 21:15:00
5:35 PM,80.1,68.0,67,29.83,10.0,East,12.7,19.6,N/A,,Clear,90,2013-08-31 21:35:00
5:55 PM,77.5,65.3,66,29.81,10.0,ESE,8.1,-,N/A,Thunderstorm,Clear,110,2013-08-31 21:55:00
6:15 PM,77.0,65.1,67,29.81,10.0,ESE,4.6,-,N/A,,Clear,120,2013-08-31 22:15:00
6:35 PM,76.5,65.1,68,29.79,10.0,ESE,5.8,-,N/A,,Clear,120,2013-08-31 22:35:00
6:55 PM,75.7,65.3,70,29.79,10.0,SSE,4.6,-,N/A,,Clear,160,2013-08-31 22:55:00
7:15 PM,75.7,66.2,72,29.80,10.0,South,3.5,-,N/A,,Clear,170,2013-08-31 23:15:00
7:35 PM,75.6,66.2,73,29.82,10.0,South,5.8,-,N/A,,Clear,170,2013-08-31 23:35:00
7:55 PM,74.8,66.4,75,29.83,10.0,SSE,8.1,-,N/A,,Clear,150,2013-08-31 23:55:00
8:15 PM,74.3,66.4,76,29.83,10.0,SSE,6.9,-,N/A,,Clear,160,2013-09-01 00:15:00
8:35 PM,74.1,66.2,76,29.82,10.0,SSE,8.1,-,N/A,,Clear,150,2013-09-01 00:35:00
8:55 PM,74.3,65.8,75,29.82,10.0,SSE,10.4,-,N/A,Thunderstorm,Scattered Clouds,150,2013-09-01 00:55:00
9:15 PM,73.6,66.6,79,29.88,10.0,West,13.8,25.3,0.01,Rain-Thunderstorm,Heavy Thunderstorms and Rain,270,2013-09-01 01:15:00
9:35 PM,72.5,66.7,82,29.86,10.0,South,5.8,-,0.05,Rain-Thunderstorm,Light Thunderstorms and Rain,170,2013-09-01 01:35:00
9:55 PM,71.8,66.7,84,29.83,10.0,ESE,5.8,-,0.05,Rain,Light Rain,120,2013-09-01 01:55:00
10:15 PM,71.6,67.1,86,29.83,10.0,ESE,5.8,-,N/A,,Clear,110,2013-09-01 02:15:00
10:35 PM,71.6,67.1,86,29.82,10.0,SE,6.9,-,N/A,Thunderstorm,Clear,130,2013-09-01 02:35:00
10:55 PM,71.4,67.1,86,29.82,10.0,SE,5.8,-,N/A,,Clear,140,2013-09-01 02:55:00
11:15 PM,71.2,66.9,86,29.81,10.0,SSE,5.8,-,N/A,,Clear,150,2013-09-01 03:15:00
11:35 PM,70.9,66.6,86,29.80,10.0,South,4.6,-,N/A,,Clear,170,2013-09-01 03:35:00
11:55 PM,70.9,66.4,86,29.81,10.0,SSW,5.8,-,N/A,,Clear,200,2013-09-01 03:55:00